Time,TemperatureF,DewpointF,PressureIn,WindDirection,WindDirectionDegrees,WindSpeedMPH,WindSpeedGustMPH,Humidity,HourlyPrecipIn,Conditions,Clouds,dailyrainin,SoftwareType,DateUTC
2013-01-21 00:04:00,16.9,2.0,30.33,WSW,247,8.7,8.7,54,0.00,,,0.00,TxWx,2013-01-21 06:04:00,
2013-01-21 00:09:00,16.8,2.0,30.33,WSW,245,8.4,8.4,55,0.00,,,0.00,TxWx,2013-01-21 06:09:00,
2013-01-21 00:14:00,16.6,3.0,30.33,WSW,251,8.7,8.7,55,0.00,,,0.00,TxWx,2013-01-21 06:14:00,
2013-01-21 00:19:00,16.4,2.0,30.33,WSW,237,7.5,7.5,56,0.00,,,0.00,TxWx,2013-01-21 06:19:00,
2013-01-21 00:25:00,16.3,2.0,30.33,SW,229,4.2,4.2,56,0.00,,,0.00,TxWx,2013-01-21 06:25:00,
2013-01-21 00:30:00,16.2,2.0,30.33,WSW,258,6.0,6.6,57,0.00,,,0.00,TxWx,2013-01-21 06:30:00,
2013-01-21 00:35:00,16.0,2.0,30.32,West,279,3.6,3.6,57,0.00,,,0.00,TxWx,2013-01-21 06:35:00,
2013-01-21 00:40:00,15.9,2.0,30.32,WSW,248,4.8,5.1,57,0.00,,,0.00,TxWx,2013-01-21 06:40:00,
2013-01-21 00:45:00,15.8,2.0,30.32,West,263,4.8,4.8,57,0.00,,,0.00,TxWx,2013-01-21 06:45:00,
2013-01-21 00:50:00,15.7,3.0,30.32,WSW,254,4.5,4.8,58,0.00,,,0.00,TxWx,2013-01-21 06:50:00,
2013-01-21 00:55:00,15.6,3.0,30.32,WSW,255,4.8,5.4,58,0.00,,,0.00,TxWx,2013-01-21 06:55:00,
2013-01-21 01:00:00,15.7,3.0,30.32,West,273,4.2,4.5,59,0.00,,,0.00,TxWx,2013-01-21 07:00:00,
2013-01-21 01:06:00,15.8,3.0,30.32,WSW,254,4.5,5.1,58,0.00,,,0.00,TxWx,2013-01-21 07:06:00,
2013-01-21 01:11:00,16.0,3.0,30.32,WSW,251,4.2,4.2,59,0.00,,,0.00,TxWx,2013-01-21 07:11:00,
2013-01-21 01:16:00,16.0,3.0,30.32,West,259,8.1,8.4,59,0.00,,,0.00,TxWx,2013-01-21 07:16:00,
2013-01-21 01:21:00,16.0,3.0,30.32,WSW,246,6.9,6.9,58,0.00,,,0.00,TxWx,2013-01-21 07:21:00,
2013-01-21 01:27:00,16.0,3.0,30.31,WSW,238,7.2,8.4,59,0.00,,,0.00,TxWx,2013-01-21 07:27:00,
2013-01-21 01:32:00,16.0,3.0,30.32,SW,229,5.7,6.6,60,0.00,,,0.00,TxWx,2013-01-21 07:32:00,
2013-01-21 01:38:00,16.1,4.0,30.31,SW,227,6.6,6.6,60,0.00,,,0.00,TxWx,2013-01-21 07:38:00,
2013-01-21 01:43:00,16.0,4.0,30.31,WSW,242,10.2,10.2,60,0.00,,,0.00,TxWx,2013-01-21 07:43:00,
2013-01-21 01:48:00,15.9,4.0,30.31,WSW,241,10.2,10.8,60,0.00,,,0.00,TxWx,2013-01-21 07:48:00,
2013-01-21 01:53:00,15.8,4.0,30.31,WSW,244,5.1,5.1,61,0.00,,,0.00,TxWx,2013-01-21 07:53:00,
2013-01-21 01:58:00,15.7,3.0,30.31,WSW,245,13.2,13.2,60,0.00,,,0.00,TxWx,2013-01-21 07:58:00,
2013-01-21 02:04:00,15.6,3.0,30.31,WSW,254,8.1,9.0,60,0.00,,,0.00,TxWx,2013-01-21 08:04:00,
2013-01-21 02:09:00,15.5,3.0,30.31,WSW,244,6.6,8.1,60,0.00,,,0.00,TxWx,2013-01-21 08:09:00,
2013-01-21 02:14:00,15.5,2.0,30.30,WSW,247,9.3,9.9,60,0.00,,,0.00,TxWx,2013-01-21 08:14:00,
2013-01-21 02:19:00,15.5,2.0,30.30,WSW,253,9.3,9.3,60,0.00,,,0.00,TxWx,2013-01-21 08:19:00,
2013-01-21 02:24:00,15.5,3.0,30.30,WSW,244,4.8,5.1,60,0.00,,,0.00,TxWx,2013-01-21 08:24:00,
2013-01-21 02:29:00,15.3,2.0,30.30,WSW,239,12.3,12.3,60,0.00,,,0.00,TxWx,2013-01-21 08:29:00,
2013-01-21 02:35:00,15.3,2.0,30.30,SW,234,10.8,10.8,60,0.00,,,0.00,TxWx,2013-01-21 08:35:00,
2013-01-21 02:40:00,15.2,2.0,30.30,SW,230,8.1,8.4,60,0.00,,,0.00,TxWx,2013-01-21 08:40:00,
2013-01-21 02:45:00,15.1,3.0,30.30,WSW,242,5.7,5.7,61,0.00,,,0.00,TxWx,2013-01-21 08:45:00,
2013-01-21 02:50:00,15.0,3.0,30.30,WSW,248,10.2,10.2,61,0.00,,,0.00,TxWx,2013-01-21 08:50:00,
2013-01-21 02:55:00,14.9,3.0,30.30,WSW,248,7.2,7.8,61,0.00,,,0.00,TxWx,2013-01-21 08:55:00,
2013-01-21 03:01:00,14.8,3.0,30.30,WSW,242,6.9,6.9,62,0.00,,,0.00,TxWx,2013-01-21 09:01:00,
2013-01-21 03:06:00,14.8,3.0,30.30,SW,236,7.2,7.2,61,0.00,,,0.00,TxWx,2013-01-21 09:06:00,
2013-01-21 03:11:00,14.8,3.0,30.29,WSW,242,3.3,4.5,61,0.00,,,0.00,TxWx,2013-01-21 09:11:00,
2013-01-21 03:16:00,14.6,3.0,30.29,WSW,255,9.3,9.6,61,0.00,,,0.00,TxWx,2013-01-21 09:16:00,
2013-01-21 03:21:00,14.5,2.0,30.29,West,262,10.8,10.8,62,0.00,,,0.00,TxWx,2013-01-21 09:21:00,
2013-01-21 03:27:00,14.3,2.0,30.29,WSW,254,15.3,16.8,61,0.00,,,0.00,TxWx,2013-01-21 09:27:00,
2013-01-21 03:32:00,14.2,2.0,30.29,WSW,247,11.4,11.4,62,0.00,,,0.00,TxWx,2013-01-21 09:32:00,
2013-01-21 03:38:00,14.1,2.0,30.29,WSW,249,15.0,15.0,61,0.00,,,0.00,TxWx,2013-01-21 09:38:00,
2013-01-21 03:43:00,13.9,2.0,30.28,WSW,250,14.1,14.1,61,0.00,,,0.00,TxWx,2013-01-21 09:43:00,
2013-01-21 03:48:00,13.8,2.0,30.29,WSW,238,15.6,17.1,62,0.00,,,0.00,TxWx,2013-01-21 09:48:00,
2013-01-21 03:53:00,13.8,3.0,30.29,SW,228,9.3,9.3,63,0.00,,,0.00,TxWx,2013-01-21 09:53:00,
2013-01-21 03:59:00,13.6,3.0,30.29,WSW,254,8.7,11.4,63,0.00,,,0.00,TxWx,2013-01-21 09:59:00,
2013-01-21 04:04:00,13.5,2.0,30.29,WSW,242,14.7,15.3,61,0.00,,,0.00,TxWx,2013-01-21 10:04:00,
2013-01-21 04:09:00,13.5,1.0,30.29,WSW,244,16.5,16.5,61,0.00,,,0.00,TxWx,2013-01-21 10:09:00,
2013-01-21 04:14:00,13.4,1.0,30.28,West,259,8.7,9.9,62,0.00,,,0.00,TxWx,2013-01-21 10:14:00,
2013-01-21 04:19:00,13.2,2.0,30.29,WSW,258,8.1,11.4,64,0.00,,,0.00,TxWx,2013-01-21 10:19:00,
2013-01-21 04:24:00,13.2,3.0,30.29,WSW,248,9.6,9.6,66,0.00,,,0.00,TxWx,2013-01-21 10:24:00,
2013-01-21 04:29:00,13.4,3.0,30.28,WSW,241,6.0,7.2,66,0.00,,,0.00,TxWx,2013-01-21 10:29:00,
2013-01-21 04:34:00,13.5,3.0,30.28,WSW,248,10.8,10.8,67,0.00,,,0.00,TxWx,2013-01-21 10:34:00,
2013-01-21 04:40:00,13.2,3.0,30.28,West,262,10.8,14.1,68,0.00,,,0.00,TxWx,2013-01-21 10:40:00,
2013-01-21 04:45:00,12.9,4.0,30.27,WSW,245,15.6,15.6,69,0.00,,,0.00,TxWx,2013-01-21 10:45:00,
2013-01-21 04:50:00,12.9,4.0,30.27,SW,218,4.8,6.6,70,0.00,,,0.00,TxWx,2013-01-21 10:50:00,
2013-01-21 04:55:00,12.7,4.0,30.27,West,261,8.4,13.2,71,0.00,,,0.00,TxWx,2013-01-21 10:55:00,
2013-01-21 05:00:00,12.7,4.0,30.28,SW,228,6.6,7.2,71,0.00,,,0.00,TxWx,2013-01-21 11:00:00,
2013-01-21 05:05:00,12.6,5.0,30.28,WSW,249,9.6,10.2,73,0.00,,,0.00,TxWx,2013-01-21 11:05:00,
2013-01-21 05:11:00,12.5,4.0,30.27,WSW,246,9.3,9.9,74,0.00,,,0.00,TxWx,2013-01-21 11:11:00,
2013-01-21 05:16:00,12.5,5.0,30.27,WSW,252,11.7,11.7,74,0.00,,,0.00,TxWx,2013-01-21 11:16:00,
2013-01-21 05:21:00,12.5,5.0,30.27,WSW,240,9.6,12.3,72,0.00,,,0.00,TxWx,2013-01-21 11:21:00,
2013-01-21 05:26:00,12.7,4.0,30.27,SW,230,6.9,6.9,71,0.00,,,0.00,TxWx,2013-01-21 11:26:00,
2013-01-21 05:31:00,12.8,4.0,30.27,WSW,250,10.5,10.5,70,0.00,,,0.00,TxWx,2013-01-21 11:31:00,
2013-01-21 05:37:00,12.8,4.0,30.27,WSW,251,8.1,8.4,69,0.00,,,0.00,TxWx,2013-01-21 11:37:00,
2013-01-21 05:42:00,12.9,4.0,30.28,WSW,244,9.0,10.2,71,0.00,,,0.00,TxWx,2013-01-21 11:42:00,
2013-01-21 05:47:00,13.0,4.0,30.28,WSW,254,7.2,7.8,71,0.00,,,0.00,TxWx,2013-01-21 11:47:00,
2013-01-21 05:52:00,12.7,4.0,30.28,WSW,248,9.6,10.5,71,0.00,,,0.00,TxWx,2013-01-21 11:52:00,
2013-01-21 05:57:00,12.7,5.0,30.28,WSW,255,8.1,8.1,72,0.00,,,0.00,TxWx,2013-01-21 11:57:00,
2013-01-21 06:02:00,12.6,5.0,30.27,WSW,242,9.9,9.9,74,0.00,,,0.00,TxWx,2013-01-21 12:02:00,
2013-01-21 06:07:00,12.7,5.0,30.28,WSW,254,9.0,9.0,75,0.00,,,0.00,TxWx,2013-01-21 12:07:00,
2013-01-21 06:12:00,12.7,6.0,30.28,WSW,246,4.2,4.8,75,0.00,,,0.00,TxWx,2013-01-21 12:12:00,
2013-01-21 06:17:00,12.6,6.0,30.27,West,262,8.7,11.1,77,0.00,,,0.00,TxWx,2013-01-21 12:17:00,
2013-01-21 06:22:00,12.4,6.0,30.27,WSW,238,9.6,9.6,79,0.00,,,0.00,TxWx,2013-01-21 12:22:00,
2013-01-21 06:27:00,12.3,6.0,30.27,West,267,7.2,7.2,80,0.00,,,0.00,TxWx,2013-01-21 12:27:00,
2013-01-21 06:33:00,12.1,6.0,30.28,WSW,244,8.7,8.7,81,0.00,,,0.00,TxWx,2013-01-21 12:33:00,
2013-01-21 06:38:00,12.1,7.0,30.28,WSW,240,5.4,5.4,82,0.00,,,0.00,TxWx,2013-01-21 12:38:00,
2013-01-21 06:43:00,12.1,7.0,30.27,WSW,257,9.6,11.1,82,0.00,,,0.00,TxWx,2013-01-21 12:43:00,
2013-01-21 06:48:00,12.2,6.0,30.27,West,271,5.4,5.4,80,0.00,,,0.00,TxWx,2013-01-21 12:48:00,
2013-01-21 06:53:00,12.2,5.0,30.28,WSW,246,8.7,8.7,77,0.00,,,0.00,TxWx,2013-01-21 12:53:00,
2013-01-21 06:58:00,12.2,5.0,30.27,West,260,9.3,9.6,76,0.00,,,0.00,TxWx,2013-01-21 12:58:00,
2013-01-21 07:03:00,12.1,4.0,30.27,West,262,6.9,6.9,75,0.00,,,0.00,TxWx,2013-01-21 13:03:00,
2013-01-21 07:09:00,11.9,4.0,30.28,West,267,7.8,8.7,74,0.00,,,0.00,TxWx,2013-01-21 13:09:00,
2013-01-21 07:14:00,11.8,4.0,30.27,WSW,237,8.1,9.0,72,0.00,,,0.00,TxWx,2013-01-21 13:14:00,
2013-01-21 07:19:00,11.7,4.0,30.27,WSW,253,10.5,11.7,73,0.00,,,0.00,TxWx,2013-01-21 13:19:00,
2013-01-21 07:24:00,11.7,4.0,30.28,WSW,246,7.2,7.5,75,0.00,,,0.00,TxWx,2013-01-21 13:24:00,
2013-01-21 07:29:00,11.7,5.0,30.28,WSW,251,8.1,8.1,76,0.00,,,0.00,TxWx,2013-01-21 13:29:00,
2013-01-21 07:34:00,11.7,5.0,30.28,WSW,252,5.7,5.7,76,0.00,,,0.00,TxWx,2013-01-21 13:34:00,
2013-01-21 07:39:00,11.7,5.0,30.28,SW,236,6.0,6.0,76,0.00,,,0.00,TxWx,2013-01-21 13:39:00,
2013-01-21 07:45:00,11.8,5.0,30.28,WSW,250,4.8,4.8,75,0.00,,,0.00,TxWx,2013-01-21 13:45:00,
2013-01-21 07:50:00,11.8,4.0,30.28,SW,233,6.0,6.0,75,0.00,,,0.00,TxWx,2013-01-21 13:50:00,
2013-01-21 07:55:00,12.0,4.0,30.28,WSW,250,5.1,5.4,74,0.00,,,0.00,TxWx,2013-01-21 13:55:00,
2013-01-21 08:00:00,12.0,4.0,30.28,SW,236,5.1,5.7,72,0.00,,,0.00,TxWx,2013-01-21 14:00:00,
2013-01-21 08:05:00,11.8,4.0,30.28,WSW,248,10.2,10.5,72,0.00,,,0.00,TxWx,2013-01-21 14:05:00,
2013-01-21 08:10:00,11.5,4.0,30.28,WSW,251,9.0,9.0,75,0.00,,,0.00,TxWx,2013-01-21 14:10:00,
2013-01-21 08:15:00,11.5,4.0,30.28,WSW,253,8.4,9.0,77,0.00,,,0.00,TxWx,2013-01-21 14:15:00,
2013-01-21 08:20:00,11.3,4.0,30.28,WSW,246,13.8,15.6,78,0.00,,,0.00,TxWx,2013-01-21 14:20:00,
2013-01-21 08:25:00,11.3,4.0,30.28,West,271,7.8,10.8,77,0.00,,,0.00,TxWx,2013-01-21 14:25:00,
2013-01-21 08:31:00,11.2,4.0,30.28,WSW,242,10.8,10.8,76,0.00,,,0.00,TxWx,2013-01-21 14:31:00,
2013-01-21 08:36:00,11.4,4.0,30.28,WSW,240,8.1,8.1,78,0.00,,,0.00,TxWx,2013-01-21 14:36:00,
2013-01-21 08:41:00,11.3,5.0,30.28,WSW,255,9.0,10.2,80,0.00,,,0.00,TxWx,2013-01-21 14:41:00,
2013-01-21 08:46:00,11.6,6.0,30.29,WSW,238,5.7,6.6,81,0.00,,,0.00,TxWx,2013-01-21 14:46:00,
2013-01-21 08:51:00,11.8,6.0,30.29,WSW,241,7.5,9.0,81,0.00,,,0.00,TxWx,2013-01-21 14:51:00,
2013-01-21 08:56:00,11.7,6.0,30.29,WSW,249,10.5,11.1,81,0.00,,,0.00,TxWx,2013-01-21 14:56:00,
2013-01-21 09:02:00,12.0,4.0,30.29,West,269,12.9,12.9,75,0.00,,,0.00,TxWx,2013-01-21 15:02:00,
2013-01-21 09:07:00,12.0,3.0,30.29,WSW,254,9.3,9.3,70,0.00,,,0.00,TxWx,2013-01-21 15:07:00,
2013-01-21 09:12:00,12.1,2.0,30.29,WSW,257,14.1,15.6,68,0.00,,,0.00,TxWx,2013-01-21 15:12:00,
2013-01-21 09:17:00,12.0,2.0,30.29,West,261,13.5,15.0,66,0.00,,,0.00,TxWx,2013-01-21 15:17:00,
2013-01-21 09:22:00,12.0,2.0,30.30,West,264,14.1,14.4,67,0.00,,,0.00,TxWx,2013-01-21 15:22:00,
2013-01-21 09:28:00,11.8,3.0,30.30,WSW,239,17.4,17.4,71,0.00,,,0.00,TxWx,2013-01-21 15:28:00,
2013-01-21 09:33:00,11.2,5.0,30.30,West,259,9.3,10.8,80,0.00,,,0.00,TxWx,2013-01-21 15:33:00,
2013-01-21 09:38:00,10.8,5.0,30.30,WSW,239,6.0,7.5,79,0.00,,,0.00,TxWx,2013-01-21 15:38:00,
2013-01-21 09:43:00,10.5,4.0,30.30,WSW,245,9.6,13.5,78,0.00,,,0.00,TxWx,2013-01-21 15:43:00,
2013-01-21 09:48:00,10.6,4.0,30.30,WSW,245,17.1,17.1,77,0.00,,,0.00,TxWx,2013-01-21 15:48:00,
2013-01-21 09:53:00,10.6,4.0,30.30,SW,224,9.3,10.2,77,0.00,,,0.00,TxWx,2013-01-21 15:53:00,
2013-01-21 09:58:00,10.6,4.0,30.30,WSW,250,14.1,14.1,77,0.00,,,0.00,TxWx,2013-01-21 15:58:00,
2013-01-21 10:04:00,10.4,3.0,30.30,WSW,255,16.8,19.5,78,0.00,,,0.00,TxWx,2013-01-21 16:04:00,
2013-01-21 10:09:00,10.3,4.0,30.31,WSW,241,12.6,13.2,79,0.00,,,0.00,TxWx,2013-01-21 16:09:00,
2013-01-21 10:15:00,10.8,4.0,30.31,West,264,5.4,5.7,76,0.00,,,0.00,TxWx,2013-01-21 16:15:00,
2013-01-21 10:20:00,10.9,5.0,30.30,WSW,257,14.4,14.4,79,0.00,,,0.00,TxWx,2013-01-21 16:20:00,
2013-01-21 10:25:00,11.5,5.0,30.31,WSW,255,11.4,12.9,78,0.00,,,0.00,TxWx,2013-01-21 16:25:00,
2013-01-21 10:30:00,11.3,2.0,30.31,WSW,249,20.1,20.1,69,0.00,,,0.00,TxWx,2013-01-21 16:30:00,
2013-01-21 10:36:00,9.7,3.0,30.31,WSW,247,15.6,16.2,77,0.00,,,0.00,TxWx,2013-01-21 16:36:00,
2013-01-21 10:41:00,10.6,1.0,30.31,WSW,252,9.9,14.4,68,0.00,,,0.00,TxWx,2013-01-21 16:41:00,
2013-01-21 10:46:00,11.1,-1.0,30.31,WSW,256,14.1,14.1,61,0.00,,,0.00,TxWx,2013-01-21 16:46:00,
2013-01-21 10:51:00,10.9,-3.0,30.31,WSW,257,17.4,17.4,56,0.00,,,0.00,TxWx,2013-01-21 16:51:00,
2013-01-21 10:56:00,10.6,-4.0,30.31,WSW,253,16.8,16.8,53,0.00,,,0.00,TxWx,2013-01-21 16:56:00,
2013-01-21 11:01:00,10.2,-5.0,30.31,WSW,250,14.4,14.4,52,0.00,,,0.00,TxWx,2013-01-21 17:01:00,
2013-01-21 11:06:00,10.0,-5.0,30.31,WSW,250,15.3,17.1,54,0.00,,,0.00,TxWx,2013-01-21 17:06:00,
2013-01-21 11:11:00,10.0,-4.0,30.31,West,262,21.0,22.2,54,0.00,,,0.00,TxWx,2013-01-21 17:11:00,
2013-01-21 11:17:00,9.9,-5.0,30.31,West,263,20.4,23.4,54,0.00,,,0.00,TxWx,2013-01-21 17:17:00,
2013-01-21 11:22:00,10.2,-4.0,30.31,West,260,15.3,15.3,55,0.00,,,0.00,TxWx,2013-01-21 17:22:00,
2013-01-21 11:27:00,10.0,-4.0,30.30,West,272,11.1,15.9,55,0.00,,,0.00,TxWx,2013-01-21 17:27:00,
2013-01-21 11:32:00,11.0,-2.0,30.30,WSW,252,10.5,10.5,58,0.00,,,0.00,TxWx,2013-01-21 17:32:00,
2013-01-21 11:37:00,10.4,-5.0,30.29,SW,219,12.3,12.6,54,0.00,,,0.00,TxWx,2013-01-21 17:37:00,
2013-01-21 11:42:00,11.3,-3.0,30.29,South,169,3.0,3.0,56,0.00,,,0.00,TxWx,2013-01-21 17:42:00,
2013-01-21 11:48:00,10.6,-2.0,30.29,SW,217,15.9,24.0,57,0.00,,,0.00,TxWx,2013-01-21 17:48:00,
2013-01-21 11:53:00,10.4,-4.0,30.29,WSW,245,9.9,9.9,56,0.00,,,0.00,TxWx,2013-01-21 17:53:00,
2013-01-21 11:58:00,11.0,-2.0,30.29,WSW,250,14.4,14.4,59,0.00,,,0.00,TxWx,2013-01-21 17:58:00,
2013-01-21 12:03:00,10.5,-2.0,30.30,West,259,18.3,18.6,57,0.00,,,0.00,TxWx,2013-01-21 18:03:00,
2013-01-21 12:09:00,10.5,-4.0,30.30,WSW,248,20.1,20.1,55,0.00,,,0.00,TxWx,2013-01-21 18:09:00,
2013-01-21 12:14:00,10.7,-3.0,30.29,WSW,250,8.1,12.3,55,0.00,,,0.00,TxWx,2013-01-21 18:14:00,
2013-01-21 12:20:00,10.4,-5.0,30.30,SW,236,11.1,11.1,54,0.00,,,0.00,TxWx,2013-01-21 18:20:00,
2013-01-21 12:25:00,9.7,-5.0,30.30,WSW,238,13.5,14.1,53,0.00,,,0.00,TxWx,2013-01-21 18:25:00,
2013-01-21 12:30:00,9.7,-5.0,30.30,WSW,252,21.3,21.3,53,0.00,,,0.00,TxWx,2013-01-21 18:30:00,
2013-01-21 12:35:00,10.3,-5.0,30.30,West,278,13.2,13.2,53,0.00,,,0.00,TxWx,2013-01-21 18:35:00,
2013-01-21 12:41:00,9.9,-5.0,30.30,WSW,256,23.4,23.4,54,0.00,,,0.00,TxWx,2013-01-21 18:41:00,
2013-01-21 12:46:00,10.5,-5.0,30.30,WSW,239,12.3,12.3,53,0.00,,,0.00,TxWx,2013-01-21 18:46:00,
2013-01-21 12:51:00,10.1,-4.0,30.30,WSW,242,13.5,15.0,54,0.00,,,0.00,TxWx,2013-01-21 18:51:00,
2013-01-21 12:56:00,10.5,-3.0,30.30,WSW,243,11.4,11.4,56,0.00,,,0.00,TxWx,2013-01-21 18:56:00,
2013-01-21 13:02:00,10.3,-5.0,30.30,WSW,255,15.3,19.2,54,0.00,,,0.00,TxWx,2013-01-21 19:02:00,
2013-01-21 13:08:00,10.1,-4.0,30.30,SW,232,11.4,11.4,56,0.00,,,0.00,TxWx,2013-01-21 19:08:00,
2013-01-21 13:13:00,11.2,-2.0,30.30,West,264,12.6,12.6,57,0.00,,,0.00,TxWx,2013-01-21 19:13:00,
2013-01-21 13:18:00,9.8,-5.0,30.30,West,267,11.1,12.9,54,0.00,,,0.00,TxWx,2013-01-21 19:18:00,
2013-01-21 13:23:00,10.2,-4.0,30.30,WSW,241,11.7,11.7,56,0.00,,,0.00,TxWx,2013-01-21 19:23:00,
2013-01-21 13:28:00,9.4,-6.0,30.31,WSW,240,18.0,18.6,53,0.00,,,0.00,TxWx,2013-01-21 19:28:00,
2013-01-21 13:34:00,10.3,-5.0,30.31,WSW,243,9.9,11.7,53,0.00,,,0.00,TxWx,2013-01-21 19:34:00,
2013-01-21 13:39:00,10.5,-5.0,30.30,WSW,244,8.1,8.1,52,0.00,,,0.00,TxWx,2013-01-21 19:39:00,
2013-01-21 13:44:00,10.4,-6.0,30.31,SW,226,11.4,13.8,51,0.00,,,0.00,TxWx,2013-01-21 19:44:00,
2013-01-21 13:49:00,10.7,-4.0,30.31,WSW,252,13.8,13.8,52,0.00,,,0.00,TxWx,2013-01-21 19:49:00,
2013-01-21 13:54:00,11.1,-5.0,30.31,West,272,8.7,9.9,51,0.00,,,0.00,TxWx,2013-01-21 19:54:00,
2013-01-21 14:00:00,10.6,-5.0,30.31,WSW,237,15.9,16.2,49,0.00,,,0.00,TxWx,2013-01-21 20:00:00,
2013-01-21 14:05:00,10.5,-5.0,30.31,WSW,248,16.2,17.4,51,0.00,,,0.00,TxWx,2013-01-21 20:05:00,
2013-01-21 14:10:00,11.2,-5.0,30.31,WSW,247,11.1,11.1,51,0.00,,,0.00,TxWx,2013-01-21 20:10:00,
2013-01-21 14:15:00,10.5,-7.0,30.31,WSW,245,12.9,15.0,48,0.00,,,0.00,TxWx,2013-01-21 20:15:00,
2013-01-21 14:20:00,10.6,-6.0,30.31,SW,233,7.8,9.9,48,0.00,,,0.00,TxWx,2013-01-21 20:20:00,
2013-01-21 14:25:00,10.7,-5.0,30.31,WSW,253,21.0,21.0,50,0.00,,,0.00,TxWx,2013-01-21 20:25:00,
2013-01-21 14:31:00,10.6,-5.0,30.31,WSW,246,15.3,15.3,49,0.00,,,0.00,TxWx,2013-01-21 20:31:00,
2013-01-21 14:36:00,10.4,-7.0,30.31,WSW,237,16.2,18.6,47,0.00,,,0.00,TxWx,2013-01-21 20:36:00,
2013-01-21 14:41:00,10.1,-7.0,30.31,WSW,242,12.6,13.2,47,0.00,,,0.00,TxWx,2013-01-21 20:41:00,
2013-01-21 14:46:00,10.1,-7.0,30.31,SW,227,12.0,15.0,48,0.00,,,0.00,TxWx,2013-01-21 20:46:00,
2013-01-21 14:51:00,10.6,-6.0,30.31,WSW,240,15.6,15.9,47,0.00,,,0.00,TxWx,2013-01-21 20:51:00,
2013-01-21 14:56:00,10.6,-6.0,30.31,WSW,244,18.9,19.8,47,0.00,,,0.00,TxWx,2013-01-21 20:56:00,
2013-01-21 15:01:00,10.5,-7.0,30.32,WSW,248,18.9,18.9,47,0.00,,,0.00,TxWx,2013-01-21 21:01:00,
2013-01-21 15:06:00,10.6,-7.0,30.32,West,259,9.6,9.6,45,0.00,,,0.00,TxWx,2013-01-21 21:06:00,
2013-01-21 15:11:00,10.4,-8.0,30.32,WSW,247,16.2,17.7,46,0.00,,,0.00,TxWx,2013-01-21 21:11:00,
2013-01-21 15:17:00,10.7,-6.0,30.32,WSW,253,10.5,10.8,48,0.00,,,0.00,TxWx,2013-01-21 21:17:00,
2013-01-21 15:22:00,10.7,-6.0,30.32,WSW,237,12.0,13.5,47,0.00,,,0.00,TxWx,2013-01-21 21:22:00,
2013-01-21 15:27:00,10.4,-8.0,30.32,WSW,243,14.7,15.3,45,0.00,,,0.00,TxWx,2013-01-21 21:27:00,
2013-01-21 15:32:00,10.8,-6.0,30.32,SW,230,9.0,10.8,47,0.00,,,0.00,TxWx,2013-01-21 21:32:00,
2013-01-21 15:37:00,10.8,-7.0,30.32,WSW,245,13.8,13.8,47,0.00,,,0.00,TxWx,2013-01-21 21:37:00,
2013-01-21 15:42:00,10.7,-7.0,30.32,WSW,251,14.1,14.1,47,0.00,,,0.00,TxWx,2013-01-21 21:42:00,
2013-01-21 15:47:00,11.2,-7.0,30.32,WSW,258,8.1,8.1,46,0.00,,,0.00,TxWx,2013-01-21 21:47:00,
2013-01-21 15:53:00,10.8,-7.0,30.33,WSW,240,12.6,14.7,46,0.00,,,0.00,TxWx,2013-01-21 21:53:00,
2013-01-21 15:58:00,11.0,-7.0,30.32,WSW,249,12.6,12.6,47,0.00,,,0.00,TxWx,2013-01-21 21:58:00,
2013-01-21 16:03:00,10.8,-7.0,30.33,WSW,237,17.4,17.4,46,0.00,,,0.00,TxWx,2013-01-21 22:03:00,
2013-01-21 16:08:00,10.8,-7.0,30.33,West,260,8.1,8.1,46,0.00,,,0.00,TxWx,2013-01-21 22:08:00,
2013-01-21 16:13:00,10.8,-7.0,30.33,WSW,240,18.0,18.6,46,0.00,,,0.00,TxWx,2013-01-21 22:13:00,
2013-01-21 16:18:00,10.5,-7.0,30.33,WSW,251,10.5,11.4,45,0.00,,,0.00,TxWx,2013-01-21 22:18:00,
2013-01-21 16:24:00,10.3,-8.0,30.33,WSW,247,14.1,14.7,45,0.00,,,0.00,TxWx,2013-01-21 22:24:00,
2013-01-21 16:29:00,10.3,-8.0,30.33,WSW,251,17.4,19.2,46,0.00,,,0.00,TxWx,2013-01-21 22:29:00,
2013-01-21 16:34:00,10.2,-8.0,30.33,SW,236,12.9,12.9,46,0.00,,,0.00,TxWx,2013-01-21 22:34:00,
2013-01-21 16:39:00,10.1,-8.0,30.33,WSW,243,12.3,15.3,46,0.00,,,0.00,TxWx,2013-01-21 22:39:00,
2013-01-21 16:44:00,10.0,-8.0,30.33,WSW,242,14.4,14.4,46,0.00,,,0.00,TxWx,2013-01-21 22:44:00,
2013-01-21 16:49:00,9.8,-7.0,30.33,WSW,249,18.3,19.2,48,0.00,,,0.00,TxWx,2013-01-21 22:49:00,
2013-01-21 16:54:00,9.7,-7.0,30.33,WSW,240,13.5,13.5,47,0.00,,,0.00,TxWx,2013-01-21 22:54:00,
2013-01-21 16:59:00,9.7,-8.0,30.33,WSW,242,16.5,17.1,46,0.00,,,0.00,TxWx,2013-01-21 22:59:00,
2013-01-21 17:05:00,9.7,-8.0,30.33,SW,236,9.6,10.2,46,0.00,,,0.00,TxWx,2013-01-21 23:05:00,
2013-01-21 17:10:00,9.6,-7.0,30.33,West,268,9.0,9.0,47,0.00,,,0.00,TxWx,2013-01-21 23:10:00,
2013-01-21 17:15:00,9.6,-7.0,30.33,WSW,253,12.3,12.3,48,0.00,,,0.00,TxWx,2013-01-21 23:15:00,
2013-01-21 17:20:00,9.5,-7.0,30.34,WSW,241,14.4,15.3,48,0.00,,,0.00,TxWx,2013-01-21 23:20:00,
2013-01-21 17:25:00,9.6,-7.0,30.34,WSW,248,11.4,12.0,48,0.00,,,0.00,TxWx,2013-01-21 23:25:00,
2013-01-21 17:31:00,9.5,-7.0,30.34,WSW,237,4.5,5.1,49,0.00,,,0.00,TxWx,2013-01-21 23:31:00,
2013-01-21 17:36:00,9.5,-7.0,30.34,WSW,240,12.3,14.4,49,0.00,,,0.00,TxWx,2013-01-21 23:36:00,
2013-01-21 17:41:00,9.4,-7.0,30.34,WSW,242,9.3,9.3,49,0.00,,,0.00,TxWx,2013-01-21 23:41:00,
2013-01-21 17:46:00,9.2,-7.0,30.34,WSW,237,5.7,6.6,50,0.00,,,0.00,TxWx,2013-01-21 23:46:00,
2013-01-21 17:51:00,9.0,-6.0,30.34,West,262,10.5,11.7,53,0.00,,,0.00,TxWx,2013-01-21 23:51:00,
2013-01-21 17:56:00,8.9,-5.0,30.34,SW,233,8.1,8.1,54,0.00,,,0.00,TxWx,2013-01-21 23:56:00,
2013-01-21 18:01:00,8.8,-5.0,30.34,SW,228,7.5,8.1,54,0.00,,,0.00,TxWx,2013-01-22 00:01:00,
2013-01-21 18:06:00,8.7,-5.0,30.34,SW,226,11.4,12.0,55,0.00,,,0.00,TxWx,2013-01-22 00:06:00,
2013-01-21 18:12:00,8.8,-5.0,30.35,SW,231,8.4,9.0,55,0.00,,,0.00,TxWx,2013-01-22 00:12:00,
2013-01-21 18:17:00,8.6,-5.0,30.35,SW,223,12.6,13.2,55,0.00,,,0.00,TxWx,2013-01-22 00:17:00,
2013-01-21 18:22:00,8.5,-6.0,30.35,WSW,247,7.8,9.3,56,0.00,,,0.00,TxWx,2013-01-22 00:22:00,
2013-01-21 18:27:00,8.4,-6.0,30.35,WSW,254,13.5,13.5,56,0.00,,,0.00,TxWx,2013-01-22 00:27:00,
2013-01-21 18:32:00,8.3,-6.0,30.35,West,271,6.3,10.2,56,0.00,,,0.00,TxWx,2013-01-22 00:32:00,
2013-01-21 18:40:00,8.4,-6.0,30.35,WSW,239,9.3,12.9,56,0.00,,,0.00,TxWx,2013-01-22 00:40:00,
2013-01-21 18:45:00,8.3,-6.0,30.35,West,261,8.4,9.3,56,0.00,,,0.00,TxWx,2013-01-22 00:45:00,
2013-01-21 18:50:00,8.3,-6.0,30.35,SW,233,9.0,9.0,56,0.00,,,0.00,TxWx,2013-01-22 00:50:00,
2013-01-21 18:55:00,8.2,-6.0,30.35,WSW,248,7.8,7.8,56,0.00,,,0.00,TxWx,2013-01-22 00:55:00,
2013-01-21 19:01:00,8.1,-6.0,30.35,WSW,239,12.9,13.2,56,0.00,,,0.00,TxWx,2013-01-22 01:01:00,
2013-01-21 19:06:00,8.0,-6.0,30.35,WSW,255,9.6,10.5,56,0.00,,,0.00,TxWx,2013-01-22 01:06:00,
2013-01-21 19:11:00,8.0,-5.0,30.36,WSW,253,10.8,12.0,56,0.00,,,0.00,TxWx,2013-01-22 01:11:00,
2013-01-21 19:16:00,8.0,-6.0,30.36,West,273,12.6,12.6,56,0.00,,,0.00,TxWx,2013-01-22 01:16:00,
2013-01-21 19:21:00,7.9,-5.0,30.36,SW,227,8.7,9.6,56,0.00,,,0.00,TxWx,2013-01-22 01:21:00,
2013-01-21 19:27:00,7.9,-6.0,30.36,WSW,237,11.1,11.1,56,0.00,,,0.00,TxWx,2013-01-22 01:27:00,
2013-01-21 19:32:00,7.8,-5.0,30.36,WSW,250,9.6,10.5,56,0.00,,,0.00,TxWx,2013-01-22 01:32:00,
2013-01-21 19:37:00,7.7,-5.0,30.36,SW,220,9.0,9.0,57,0.00,,,0.00,TxWx,2013-01-22 01:37:00,
2013-01-21 19:42:00,7.7,-5.0,30.36,WSW,238,8.7,9.9,56,0.00,,,0.00,TxWx,2013-01-22 01:42:00,
2013-01-21 19:47:00,7.7,-5.0,30.36,WSW,246,8.4,9.0,57,0.00,,,0.00,TxWx,2013-01-22 01:47:00,
2013-01-21 19:52:00,7.6,-5.0,30.37,WSW,239,8.4,10.2,57,0.00,,,0.00,TxWx,2013-01-22 01:52:00,
2013-01-21 19:58:00,7.6,-5.0,30.37,WSW,251,11.1,12.3,57,0.00,,,0.00,TxWx,2013-01-22 01:58:00,
2013-01-21 20:03:00,7.5,-5.0,30.37,WSW,237,12.0,12.0,57,0.00,,,0.00,TxWx,2013-01-22 02:03:00,
2013-01-21 20:08:00,7.5,-6.0,30.37,WSW,246,8.7,8.7,57,0.00,,,0.00,TxWx,2013-01-22 02:08:00,
2013-01-21 20:14:00,7.3,-6.0,30.37,SW,231,9.9,10.8,57,0.00,,,0.00,TxWx,2013-01-22 02:14:00,
2013-01-21 20:19:00,7.3,-6.0,30.37,SW,221,9.6,9.6,58,0.00,,,0.00,TxWx,2013-01-22 02:19:00,
2013-01-21 20:24:00,7.2,-5.0,30.37,WSW,240,10.2,10.2,59,0.00,,,0.00,TxWx,2013-01-22 02:24:00,
2013-01-21 20:29:00,7.2,-6.0,30.37,WSW,243,10.5,10.5,58,0.00,,,0.00,TxWx,2013-01-22 02:29:00,
2013-01-21 20:34:00,7.2,-6.0,30.38,WSW,250,14.4,14.4,58,0.00,,,0.00,TxWx,2013-01-22 02:34:00,
2013-01-21 20:40:00,7.1,-6.0,30.38,WSW,240,8.1,9.6,58,0.00,,,0.00,TxWx,2013-01-22 02:40:00,
2013-01-21 20:45:00,7.0,-5.0,30.38,WSW,249,10.2,10.5,59,0.00,,,0.00,TxWx,2013-01-22 02:45:00,
2013-01-21 20:50:00,6.8,-5.0,30.38,WSW,239,10.5,10.5,59,0.00,,,0.00,TxWx,2013-01-22 02:50:00,
2013-01-21 20:55:00,6.8,-5.0,30.38,West,266,11.1,11.4,59,0.00,,,0.00,TxWx,2013-01-22 02:55:00,
2013-01-21 21:01:00,6.6,-5.0,30.38,SW,226,6.0,8.1,60,0.00,,,0.00,TxWx,2013-01-22 03:01:00,
2013-01-21 21:06:00,6.5,-5.0,30.39,WSW,246,7.2,7.2,60,0.00,,,0.00,TxWx,2013-01-22 03:06:00,
2013-01-21 21:11:00,6.5,-5.0,30.39,WSW,249,9.6,9.6,60,0.00,,,0.00,TxWx,2013-01-22 03:11:00,
2013-01-21 21:17:00,6.5,-5.0,30.38,SW,221,5.4,5.4,60,0.00,,,0.00,TxWx,2013-01-22 03:17:00,
2013-01-21 21:22:00,6.5,-6.0,30.39,WSW,248,8.7,10.8,60,0.00,,,0.00,TxWx,2013-01-22 03:22:00,
2013-01-21 21:27:00,6.4,-6.0,30.39,WSW,248,16.2,16.2,60,0.00,,,0.00,TxWx,2013-01-22 03:27:00,
2013-01-21 21:32:00,6.2,-6.0,30.39,WSW,248,7.2,8.1,61,0.00,,,0.00,TxWx,2013-01-22 03:32:00,
2013-01-21 21:37:00,6.1,-6.0,30.39,WSW,253,7.5,7.8,61,0.00,,,0.00,TxWx,2013-01-22 03:37:00,
2013-01-21 21:42:00,6.1,-6.0,30.39,WSW,247,7.5,7.5,61,0.00,,,0.00,TxWx,2013-01-22 03:42:00,
2013-01-21 21:48:00,6.1,-6.0,30.39,WSW,247,9.0,9.0,61,0.00,,,0.00,TxWx,2013-01-22 03:48:00,
2013-01-21 21:53:00,6.1,-6.0,30.39,WSW,249,11.7,11.7,61,0.00,,,0.00,TxWx,2013-01-22 03:53:00,
2013-01-21 21:58:00,6.0,-6.0,30.40,WSW,248,16.5,16.8,61,0.00,,,0.00,TxWx,2013-01-22 03:58:00,
2013-01-21 22:03:00,6.0,-6.0,30.39,West,262,18.3,18.3,61,0.00,,,0.00,TxWx,2013-01-22 04:03:00,
2013-01-21 22:09:00,5.9,-6.0,30.40,WSW,243,11.1,13.2,61,0.00,,,0.00,TxWx,2013-01-22 04:09:00,
2013-01-21 22:14:00,5.9,-6.0,30.40,WSW,250,7.2,7.2,61,0.00,,,0.00,TxWx,2013-01-22 04:14:00,
2013-01-21 22:19:00,5.9,-5.0,30.40,SW,236,14.4,17.1,62,0.00,,,0.00,TxWx,2013-01-22 04:19:00,
2013-01-21 22:24:00,5.8,-5.0,30.40,SW,222,9.9,11.1,62,0.00,,,0.00,TxWx,2013-01-22 04:24:00,
2013-01-21 22:29:00,5.8,-5.0,30.40,WSW,256,6.0,6.6,62,0.00,,,0.00,TxWx,2013-01-22 04:29:00,
2013-01-21 22:34:00,5.8,-5.0,30.40,West,267,13.8,15.6,62,0.00,,,0.00,TxWx,2013-01-22 04:34:00,
2013-01-21 22:39:00,5.8,-5.0,30.40,WSW,244,9.3,11.1,63,0.00,,,0.00,TxWx,2013-01-22 04:39:00,
2013-01-21 22:44:00,5.7,-5.0,30.40,WSW,245,10.8,12.0,63,0.00,,,0.00,TxWx,2013-01-22 04:44:00,
2013-01-21 22:50:00,5.7,-5.0,30.40,WSW,245,17.1,17.1,64,0.00,,,0.00,TxWx,2013-01-22 04:50:00,
2013-01-21 22:55:00,5.6,-5.0,30.40,West,269,7.8,9.0,64,0.00,,,0.00,TxWx,2013-01-22 04:55:00,
2013-01-21 23:00:00,5.5,-5.0,30.40,WSW,253,10.2,11.1,64,0.00,,,0.00,TxWx,2013-01-22 05:00:00,
2013-01-21 23:01:00,5.5,-5.0,30.40,WSW,251,9.6,9.9,64,0.00,,,0.00,TxWx,2013-01-22 05:01:00,
2013-01-21 23:02:00,5.5,-5.0,30.40,WSW,257,11.7,12.9,64,0.00,,,0.00,TxWx,2013-01-22 05:02:00,
2013-01-21 23:03:00,5.5,-5.0,30.40,WSW,250,6.3,6.3,64,0.00,,,0.00,TxWx,2013-01-22 05:03:00,
2013-01-21 23:08:00,5.4,-5.0,30.40,SW,233,7.2,7.2,65,0.00,,,0.00,TxWx,2013-01-22 05:08:00,
2013-01-21 23:13:00,5.4,-5.0,30.40,WSW,244,12.6,13.2,65,0.00,,,0.00,TxWx,2013-01-22 05:13:00,
2013-01-21 23:18:00,5.4,-5.0,30.40,WSW,257,7.5,7.5,65,0.00,,,0.00,TxWx,2013-01-22 05:18:00,
2013-01-21 23:23:00,5.3,-5.0,30.40,West,263,8.4,8.7,65,0.00,,,0.00,TxWx,2013-01-22 05:23:00,
2013-01-21 23:29:00,5.3,-5.0,30.40,West,266,5.1,5.1,66,0.00,,,0.00,TxWx,2013-01-22 05:29:00,
2013-01-21 23:34:00,5.3,-6.0,30.40,WSW,242,4.2,5.1,64,0.00,,,0.00,TxWx,2013-01-22 05:34:00,
2013-01-21 23:39:00,5.2,-5.0,30.40,WSW,248,8.7,8.7,65,0.00,,,0.00,TxWx,2013-01-22 05:39:00,
2013-01-21 23:44:00,5.1,-5.0,30.40,West,262,6.9,6.9,65,0.00,,,0.00,TxWx,2013-01-22 05:44:00,
2013-01-21 23:49:00,5.1,-6.0,30.40,WSW,256,10.5,11.1,64,0.00,,,0.00,TxWx,2013-01-22 05:49:00,
2013-01-21 23:55:00,5.0,-6.0,30.40,West,262,6.9,6.9,63,0.00,,,0.00,TxWx,2013-01-22 05:55:00,